TimeEDT,TemperatureF,Dew PointF,Humidity,Sea Level PressureIn,VisibilityMPH,Wind Direction,Wind SpeedMPH,Gust SpeedMPH,PrecipitationIn,Events,Conditions,WindDirDegrees,DateUTC
12:58 AM,40.1,37.8,91,30.00,10.0,NNW,2.3,-,N/A,,Clear,330,2013-05-17 04:58:00
1:58 AM,40.8,39.6,95,30.01,10.0,NW,3.5,-,N/A,,Clear,320,2013-05-17 05:58:00
2:58 AM,42.8,38.3,84,30.01,10.0,NNW,4.6,-,N/A,,Clear,340,2013-05-17 06:58:00
3:58 AM,38.3,38.1,99,30.03,10.0,WNW,2.3,-,N/A,,Clear,290,2013-05-17 07:58:00
4:58 AM,36.9,36.7,99,30.05,10.0,WSW,3.5,-,N/A,,Partly Cloudy,240,2013-05-17 08:58:00
5:58 AM,39.6,39.4,99,30.09,10.0,WSW,2.3,-,N/A,,Mostly Cloudy,250,2013-05-17 09:58:00
6:58 AM,45.7,41.4,85,30.12,10.0,West,4.6,-,N/A,,Partly Cloudy,280,2013-05-17 10:58:00
7:58 AM,48.4,41.9,78,30.13,10.0,Variable,2.3,-,N/A,,Clear,0,2013-05-17 11:58:00
8:58 AM,-9999,-9999,N/A,-9999,10.0,NNW,4.6,-,N/A,,Clear,330,2013-05-17 12:58:00
9:48 AM,-9999,-9999,N/A,-9999,10.0,NW,5.8,-,N/A,,Mostly Cloudy,320,2013-05-17 13:48:00
9:58 AM,-9999,-9999,N/A,-9999,10.0,Variable,3.5,-,N/A,,Mostly Cloudy,0,2013-05-17 13:58:00
10:58 AM,-9999,-9999,N/A,-9999,10.0,Variable,4.6,-,N/A,,Scattered Clouds,0,2013-05-17 14:58:00
11:58 AM,59.9,42.1,52,30.17,10.0,NNW,8.1,-,N/A,,Partly Cloudy,330,2013-05-17 15:58:00
12:58 PM,61.3,40.8,47,30.17,8.0,NNW,8.1,-,N/A,,Scattered Clouds,330,2013-05-17 16:58:00
1:58 PM,63.1,38.3,40,30.16,10.0,Variable,6.9,-,N/A,,Partly Cloudy,0,2013-05-17 17:58:00
2:58 PM,63.7,38.5,39,30.17,9.0,NNW,5.8,-,N/A,,Scattered Clouds,330,2013-05-17 18:58:00
3:58 PM,62.8,45.0,52,30.17,7.0,WNW,11.5,-,N/A,,Mostly Cloudy,290,2013-05-17 19:58:00
4:58 PM,62.2,44.6,52,30.17,10.0,West,8.1,-,N/A,,Clear,260,2013-05-17 20:58:00
5:58 PM,61.2,43.3,52,30.18,10.0,WSW,6.9,-,N/A,,Clear,250,2013-05-17 21:58:00
6:58 PM,60.1,43.0,53,30.18,10.0,WSW,8.1,-,N/A,,Clear,250,2013-05-17 22:58:00
7:58 PM,55.0,42.1,62,30.19,10.0,West,5.8,-,N/A,,Clear,260,2013-05-17 23:58:00
8:58 PM,51.8,42.4,70,30.20,10.0,West,3.5,-,N/A,,Clear,260,2013-05-18 00:58:00
9:58 PM,49.6,41.9,75,30.22,10.0,WSW,4.6,-,N/A,,Clear,250,2013-05-18 01:58:00
10:58 PM,48.6,41.9,78,30.23,10.0,SW,3.5,-,N/A,,Clear,230,2013-05-18 02:58:00
11:58 PM,45.1,41.2,86,30.24,10.0,SSW,5.8,-,N/A,,Clear,200,2013-05-18 03:58:00